Flag for Germany Weather past 2 weeks in Arnstadt, Thuringia, Germany

Now
76 °F

Overcast.


Feels Like: 78 °F
Forecast: 64 / 76 °F
Wind: 2 mph from Southeast

Location: Erfurt-Bindersleben

Current Time: Jul 28, 2014 at 3:40:02 PM

Latest Report: Jul 28, 2014 at 3:00 PM


Visibility: 31 mi

Pressure: 29.85 "Hg

Humidity: 63%

Dew point: 62 °F

Location of ArnstadtLocation

Historic Weather in Arnstadt — Graph

°F

Arnstadt temperature yesterday

Maximum temperature yesterday: 80 °F (at 3:00 PM)
Minimum temperature yesterday: 59 °F (at 5:00 AM)
Average temperature yesterday: 66 °F

Past Weeks' High & Low Weather Summary

 TemperatureHumidityPressure
High88 °F (Jul 19, 5:00 PM)98% (Jul 25, 2:00 AM)30.20 "Hg (Jul 25, 2:00 AM)
Low55 °F (Jul 16, 6:00 AM)27% (Jul 19, 7:00 PM)29.75 "Hg (Jul 20, 7:00 PM)
Average69 °F70%29.97 "Hg
* Reported Jul 13 2:00 PM — Jul 28 2:00 PM, Arnstadt, Weather by CustomWeather, © 2014

Note: Actual official high and low records may vary slightly from our data, if they occured in-between our weather recording intervals... More about our weather records

Advertising

Arnstadt weather history for previous 24 hours

 ConditionsComfort  
Time TempWeatherWind HumidityBarometerVisibility
2:00 PM
Jul 28
76 °FOvercast.3 mph62%29.86 "Hg28 mi
1:00 PM73 °FOvercast.3 mph70%29.88 "Hg25 mi
12:00 PM71 °FOvercast.2 mph73%29.90 "Hg19 mi
11:00 AM68 °FPartly sunny.1 mph80%29.91 "Hg16 mi
10:00 AM66 °FPartly sunny.1 mph85%29.93 "Hg14 mi
9:00 AM64 °FScattered clouds.1 mph88%29.94 "Hg12 mi
8:00 AM62 °FScattered clouds.1 mph91%29.94 "Hg12 mi
7:00 AM58 °FScattered clouds.1 mph98%29.96 "Hg9 mi
6:00 AM56 °FFog.2 mph98%29.95 "Hg0 mi
5:00 AM57 °FOvercast.2 mph96%29.95 "Hg12 mi
4:00 AM59 °FOvercast.2 mph95%29.96 "Hg12 mi
3:00 AM61 °FFog.2 mph95%29.96 "Hg16 mi
2:00 AM62 °FPassing clouds.1 mph93%29.97 "Hg31 mi
1:00 AM62 °FPassing clouds.2 mph93%29.97 "Hg31 mi
12:00 AM64 °FOvercast.2 mph92%29.98 "Hg31 mi
11:00 PM
Jul 27
65 °FOvercast.2 mph85%29.98 "Hg31 mi
10:00 PM64 °FOvercast.2 mph88%29.97 "Hg31 mi
9:00 PM65 °FOvercast.5 mph85%29.96 "Hg31 mi
8:00 PM66 °FOvercast.5 mph85%29.97 "Hg22 mi
7:00 PM65 °FOvercast.7 mph88%29.96 "Hg19 mi
6:00 PM67 °FLight rain. Overcast.2 mph84%29.93 "Hg25 mi
5:00 PM66 °FThundershowers. Overcast.3 mph81%29.93 "Hg2 mi
4:00 PM69 °FThundershowers. Overcast.5 mph79%29.94 "Hg2 mi
3:00 PM80 °FPartly sunny.2 mph55%29.90 "Hg22 mi
Weather by CustomWeather, © 2014

See weather overviewHow to use our weather pages